PAL453 RPLL-RPMR

Flight info

Callsign PAL453
Flight time N/A
Altitude 35000
Route VERDE2R VERDE A461 SAJ W3 IOO B472 COT W19 MELBY MELBY3P
Aircraft A321/M-SDE3FGHIRWY/LB1

Departure

Time N/A
Airport Ninoy Aquino International Airport (RPLL)

Arrival

Time 2026-04-30 02:44
Airport General Santos International Airport (RPMR)
Time Latitude Longitude Altitude Speed Heading
2026-04-30 02:21 7.34059 124.12878 34938 ft 446 kts 155°
2026-04-30 02:21 7.28477 124.15469 34938 ft 446 kts 155°
2026-04-30 02:22 7.22838 124.18083 34671 ft 446 kts 154°
2026-04-30 02:22 7.20052 124.19474 34391 ft 444 kts 152°
2026-04-30 02:22 7.17401 124.20982 33973 ft 441 kts 148°
2026-04-30 02:22 7.14824 124.22651 33432 ft 439 kts 145°
2026-04-30 02:23 7.12356 124.24457 32811 ft 439 kts 142°
2026-04-30 02:23 7.09970 124.26368 32116 ft 441 kts 141°
2026-04-30 02:23 7.07579 124.28312 31383 ft 443 kts 141°
2026-04-30 02:23 7.05193 124.30254 30645 ft 445 kts 141°
2026-04-30 02:24 7.02794 124.32203 29894 ft 446 kts 141°
2026-04-30 02:24 7.00398 124.34148 29172 ft 447 kts 141°
2026-04-30 02:24 6.97985 124.36105 28680 ft 441 kts 141°
2026-04-30 02:24 6.95622 124.38020 28201 ft 436 kts 141°
2026-04-30 02:25 6.93286 124.39913 27719 ft 431 kts 141°
2026-04-30 02:25 6.90949 124.41806 27233 ft 426 kts 141°
2026-04-30 02:25 6.88682 124.43642 26762 ft 421 kts 141°
2026-04-30 02:25 6.86415 124.45477 26287 ft 417 kts 142°
2026-04-30 02:26 6.84185 124.47283 25816 ft 412 kts 142°
2026-04-30 02:26 6.81973 124.49075 25343 ft 408 kts 142°
2026-04-30 02:26 6.79779 124.50850 24871 ft 404 kts 142°
2026-04-30 02:26 6.77608 124.52607 24399 ft 400 kts 142°
2026-04-30 02:27 6.75445 124.54358 23925 ft 397 kts 142°
2026-04-30 02:27 6.73299 124.56094 23451 ft 394 kts 142°
2026-04-30 02:27 6.71181 124.57808 22980 ft 390 kts 142°
2026-04-30 02:27 6.69102 124.59489 22512 ft 388 kts 142°
2026-04-30 02:28 6.67002 124.61188 22037 ft 385 kts 143°
2026-04-30 02:28 6.64197 124.63359 21394 ft 382 kts 144°
2026-04-30 02:28 6.62772 124.64433 21073 ft 381 kts 145°
2026-04-30 02:28 6.60679 124.66008 20599 ft 379 kts 145°
2026-04-30 02:29 6.58563 124.67605 20120 ft 378 kts 145°
2026-04-30 02:29 6.56467 124.69189 19643 ft 377 kts 145°
2026-04-30 02:29 6.54409 124.70748 19172 ft 376 kts 145°
2026-04-30 02:29 6.52327 124.72326 18691 ft 374 kts 145°
2026-04-30 02:30 6.50261 124.73892 18208 ft 374 kts 145°
2026-04-30 02:30 6.48191 124.75462 17718 ft 373 kts 145°
2026-04-30 02:30 6.46127 124.77027 17224 ft 372 kts 145°
2026-04-30 02:30 6.44067 124.78589 16726 ft 372 kts 145°
2026-04-30 02:31 6.42000 124.80156 16221 ft 371 kts 145°
2026-04-30 02:31 6.39984 124.81763 15712 ft 372 kts 141°
2026-04-30 02:31 6.38154 124.83597 15204 ft 374 kts 133°
2026-04-30 02:31 6.36549 124.85653 14723 ft 374 kts 128°
2026-04-30 02:32 6.35079 124.87762 14220 ft 374 kts 126°
2026-04-30 02:32 6.33622 124.89894 13708 ft 374 kts 126°
2026-04-30 02:32 6.32134 124.92061 13194 ft 374 kts 126°
2026-04-30 02:32 6.30607 124.94197 12684 ft 373 kts 129°
2026-04-30 02:33 6.28953 124.96237 12217 ft 370 kts 131°
2026-04-30 02:33 6.27289 124.98217 11774 ft 368 kts 131°
2026-04-30 02:33 6.25627 125.00185 11308 ft 366 kts 131°
2026-04-30 02:33 6.23972 125.02148 10832 ft 364 kts 130°
2026-04-30 02:34 6.22319 125.04111 10507 ft 357 kts 130°
2026-04-30 02:34 6.20730 125.06003 10357 ft 345 kts 130°
2026-04-30 02:34 6.19194 125.07831 10214 ft 334 kts 130°
2026-04-30 02:34 6.17231 125.10168 10014 ft 320 kts 130°
2026-04-30 02:35 6.16261 125.11323 9811 ft 317 kts 130°
2026-04-30 02:35 6.14849 125.13002 9522 ft 313 kts 130°
2026-04-30 02:35 6.13439 125.14680 9236 ft 308 kts 130°
2026-04-30 02:35 6.12059 125.16320 8957 ft 304 kts 130°
2026-04-30 02:36 6.10557 125.17818 8651 ft 300 kts 147°
2026-04-30 02:36 6.08640 125.18604 8317 ft 295 kts 171°
2026-04-30 02:36 6.06586 125.18883 7989 ft 293 kts 175°
2026-04-30 02:36 6.04567 125.19091 7639 ft 292 kts 175°
2026-04-30 02:37 6.02529 125.19305 7371 ft 287 kts 174°
2026-04-30 02:37 6.00538 125.19529 7108 ft 283 kts 174°
2026-04-30 02:37 5.98605 125.19756 6853 ft 279 kts 174°
2026-04-30 02:37 5.96669 125.19990 6520 ft 274 kts 174°
2026-04-30 02:38 5.94764 125.20222 6165 ft 270 kts 174°
2026-04-30 02:38 5.92909 125.20448 5824 ft 265 kts 173°
2026-04-30 02:38 5.91088 125.20615 5466 ft 260 kts 184°
2026-04-30 02:38 5.89390 125.20085 5084 ft 253 kts 216°
2026-04-30 02:39 5.88242 125.18817 4771 ft 243 kts 245°
2026-04-30 02:39 5.87796 125.17199 4471 ft 234 kts 264°
2026-04-30 02:39 5.87620 125.15600 4205 ft 222 kts 266°
2026-04-30 02:39 5.87474 125.14108 4104 ft 204 kts 267°
2026-04-30 02:40 5.87625 125.12757 3889 ft 188 kts 296°
2026-04-30 02:40 5.88478 125.11845 3678 ft 174 kts 332°
2026-04-30 02:40 5.89582 125.11545 3533 ft 157 kts 352°
2026-04-30 02:40 5.90656 125.11427 3413 ft 151 kts 354°
2026-04-30 02:41 5.91701 125.11324 3292 ft 150 kts 354°
2026-04-30 02:41 5.92761 125.11213 2999 ft 149 kts 354°
2026-04-30 02:41 5.93797 125.11096 2767 ft 148 kts 354°
2026-04-30 02:41 5.94823 125.10976 2548 ft 148 kts 353°
2026-04-30 02:42 5.95851 125.10854 2332 ft 147 kts 353°
2026-04-30 02:42 5.96883 125.10729 2139 ft 147 kts 353°
2026-04-30 02:42 5.97910 125.10603 1931 ft 147 kts 353°
2026-04-30 02:42 5.98926 125.10479 1719 ft 146 kts 353°
2026-04-30 02:43 5.99945 125.10355 1505 ft 146 kts 354°
2026-04-30 02:43 6.00947 125.10232 1294 ft 145 kts 354°
2026-04-30 02:43 6.01962 125.10095 1083 ft 145 kts 352°
2026-04-30 02:43 6.02973 125.09952 820 ft 145 kts 354°
2026-04-30 02:44 6.03978 125.09837 609 ft 144 kts 355°
2026-04-30 02:44 6.04972 125.09717 517 ft 132 kts 353°
2026-04-30 02:44 6.05773 125.09621 511 ft 92 kts 354°
2026-04-30 02:44 6.06240 125.09564 511 ft 45 kts 353°
2026-04-30 02:45 6.06373 125.09537 511 ft 6 kts 355°
2026-04-30 02:45 6.06372 125.09548 511 ft 3 kts 151°
2026-04-30 02:45 6.06327 125.09555 511 ft 14 kts 174°
2026-04-30 02:45 6.06173 125.09573 511 ft 29 kts 173°
2026-04-30 02:46 6.05953 125.09600 511 ft 30 kts 173°
2026-04-30 02:46 6.05827 125.09650 511 ft 13 kts 105°
2026-04-30 02:46 6.05831 125.09739 511 ft 12 kts 84°
2026-04-30 02:46 6.05840 125.09826 511 ft 12 kts 92°
2026-04-30 02:47 6.05794 125.09868 511 ft 5 kts 170°
2026-04-30 02:47 6.05771 125.09888 511 ft 4 kts 101°
2026-04-30 02:47 6.05772 125.09923 511 ft 5 kts 84°
2026-04-30 02:47 6.05775 125.09951 511 ft 1 kts 83°
2026-04-30 02:48 6.05776 125.09956 511 ft 0 kts 83°